Weather reports worldwide

Advertisment
Malaga/Aeropuerto, Spain (8482): temperature & dewpoint: 16.06.2018 15:00:00 - 22.06.2018 15:00:00 (CEST)Malaga/Aeropuerto, Spain (8482): wind speed: 16.06.2018 15:00:00 - 22.06.2018 15:00:00 (CEST)Malaga/Aeropuerto, Spain (8482): wind direction: 16.06.2018 15:00:00 - 22.06.2018 15:00:00 (CEST)Malaga/Aeropuerto, Spain (8482): reduced air pressure: 16.06.2018 15:00:00 - 22.06.2018 15:00:00 (CEST)Malaga/Aeropuerto, Spain (8482): visibility: 16.06.2018 15:00:00 - 22.06.2018 15:00:00 (CEST)
Date & Time tt [°C] td [°C] ff [km/h] ff [kn] dd ppp [hPa] vv [km]
22.06.2018 15:00:00 - - - - - - -
22.06.2018 14:00:00 29,5 12,8 16 9 SE 1016,4 30
22.06.2018 13:00:00 29,6 14,8 11 6 SE 1016,7 -
22.06.2018 12:00:00 28,6 14,5 9 5 SE 1016,9 -
22.06.2018 11:00:00 27,9 14,0 11 6 SE 1016,8 30
22.06.2018 10:00:00 25,3 13,1 5 3 W 1016,9 -
22.06.2018 09:00:00 22,7 12,6 11 6 WNW 1016,9 30
22.06.2018 08:00:00 20,2 12,4 13 7 WNW 1016,3 30
22.06.2018 07:00:00 21,4 12,4 15 8 WNW 1016,5 -
22.06.2018 06:00:00 20,8 12,5 16 9 WNW 1016,3 -
22.06.2018 05:00:00 21,4 12,6 16 9 W 1016,6 15
22.06.2018 04:00:00 21,8 12,9 11 6 WNW 1017,0 -
22.06.2018 03:00:00 22,7 13,2 15 8 W 1017,5 -
22.06.2018 02:00:00 22,2 13,4 8 4 W 1017,7 15
22.06.2018 01:00:00 22,0 15,3 0 0 N 1018,0 -
22.06.2018 00:00:00 22,2 15,6 2 1 E 1017,9 -
21.06.2018 23:00:00 23,6 14,3 8 4 SE 1017,7 15
21.06.2018 22:00:00 24,4 14,6 4 2 ESE 1016,9 -
21.06.2018 21:00:00 26,3 13,8 9 5 SE 1016,5 -
21.06.2018 20:00:00 27,2 14,2 9 5 SE 1016,4 40
21.06.2018 19:00:00 27,6 14,8 13 7 SE 1016,2 -
21.06.2018 18:00:00 28,0 14,1 15 8 SSE 1016,4 -
21.06.2018 17:00:00 28,2 15,1 16 9 SSE 1016,6 40
21.06.2018 16:00:00 27,2 17,4 21 11 SE 1016,6 -
21.06.2018 15:00:00 26,8 17,4 18 10 SE 1016,6 40
21.06.2018 14:00:00 26,5 17,5 21 11 SSE 1016,9 40
21.06.2018 13:00:00 26,0 17,7 16 9 SSE 1016,9 -
21.06.2018 12:00:00 25,6 18,0 18 10 SSE 1016,9 -
21.06.2018 11:00:00 26,5 16,9 15 8 SSE 1016,8 40
21.06.2018 10:00:00 26,0 13,4 9 5 W 1017,2 -
21.06.2018 09:00:00 24,4 14,6 5 3 WNW 1016,9 40
21.06.2018 08:00:00 22,3 15,9 4 2 WNW 1017,1 20
21.06.2018 07:00:00 21,1 15,9 8 4 WNW 1017,3 -
21.06.2018 06:00:00 20,8 15,9 8 4 W 1017,2 -
21.06.2018 05:00:00 21,3 16,3 5 3 W 1017,0 15
21.06.2018 04:00:00 21,6 16,2 11 6 W 1017,3 -
21.06.2018 03:00:00 21,6 16,4 9 5 W 1018,0 -
21.06.2018 02:00:00 21,4 16,6 9 5 WNW 1017,9 15
21.06.2018 01:00:00 21,2 17,6 0 0 N 1018,1 -
21.06.2018 00:00:00 21,4 17,5 8 4 ESE 1018,1 -
20.06.2018 23:00:00 22,1 16,8 9 5 ESE 1017,8 15
20.06.2018 22:00:00 22,8 16,6 8 4 SE 1016,9 -
20.06.2018 21:00:00 23,9 16,4 9 5 SE 1016,6 -
20.06.2018 20:00:00 24,8 16,6 13 7 SE 1016,4 20
20.06.2018 19:00:00 25,5 16,4 15 8 ESE 1016,4 -
20.06.2018 18:00:00 25,8 16,3 15 8 SE 1016,8 -
20.06.2018 17:00:00 26,0 16,3 15 8 SE 1017,1 35
20.06.2018 16:00:00 26,6 15,9 16 9 SSE 1017,3 -
20.06.2018 15:00:00 26,6 14,8 16 9 SE 1017,7 40
20.06.2018 14:00:00 27,2 14,9 15 8 SE 1018,1 40
20.06.2018 13:00:00 26,2 15,0 18 10 SSE 1018,1 -
20.06.2018 12:00:00 26,8 14,4 16 9 SSE 1018,2 -
20.06.2018 11:00:00 26,4 13,9 11 6 SE 1018,2 40
20.06.2018 10:00:00 24,4 15,1 9 5 WNW 1018,5 -
20.06.2018 09:00:00 21,9 15,7 11 6 WNW 1018,9 40
20.06.2018 08:00:00 20,1 15,1 15 8 WNW 1018,8 40
20.06.2018 07:00:00 19,5 15,5 16 9 W 1018,6 -
20.06.2018 06:00:00 19,6 15,5 9 5 WNW 1018,8 -
20.06.2018 05:00:00 20,1 15,9 9 5 W 1019,0 20
20.06.2018 04:00:00 20,5 16,4 8 4 W 1019,0 -
20.06.2018 03:00:00 20,4 16,7 2 1 ENE 1019,5 -
20.06.2018 02:00:00 20,4 16,4 4 2 S 1019,9 15
20.06.2018 01:00:00 20,3 16,1 8 4 SSW 1019,9 -
20.06.2018 00:00:00 21,4 16,6 5 3 ESE 1019,9 -
19.06.2018 23:00:00 21,8 16,6 8 4 E 1019,9 20
19.06.2018 22:00:00 22,3 16,3 8 4 E 1019,5 -
19.06.2018 21:00:00 23,7 16,7 8 4 ESE 1019,3 -
19.06.2018 20:00:00 24,3 17,3 11 6 ESE 1019,4 20
19.06.2018 19:00:00 25,3 17,2 15 8 ESE 1019,3 -
19.06.2018 18:00:00 25,5 16,6 18 10 SE 1019,6 -
19.06.2018 17:00:00 25,8 15,8 22 12 ESE 1019,8 25
19.06.2018 16:00:00 27,4 15,8 16 9 ESE 1020,1 -
19.06.2018 15:00:00 26,7 15,2 15 8 SE 1020,4 25
19.06.2018 14:00:00 27,3 14,3 18 10 SE 1020,9 25
19.06.2018 13:00:00 27,8 14,3 15 8 SE 1020,9 -
19.06.2018 12:00:00 27,5 13,7 11 6 SSE 1020,7 -
19.06.2018 11:00:00 27,1 13,0 13 7 ESE 1020,5 30
19.06.2018 10:00:00 25,3 13,9 8 4 W 1020,4 -
19.06.2018 09:00:00 22,4 13,1 13 7 WNW 1020,5 30
19.06.2018 08:00:00 19,8 13,0 13 7 W 1020,3 30
19.06.2018 07:00:00 19,6 12,7 11 6 W 1020,1 -
19.06.2018 06:00:00 19,6 13,1 11 6 W 1019,8 -
19.06.2018 05:00:00 20,1 13,4 9 5 WNW 1019,6 20
19.06.2018 04:00:00 21,3 14,3 9 5 W 1019,6 -
19.06.2018 03:00:00 21,3 14,3 11 6 W 1019,8 -
19.06.2018 02:00:00 22,1 15,1 8 4 W 1020,1 20
19.06.2018 01:00:00 21,6 15,4 4 2 E 1020,3 -
19.06.2018 00:00:00 22,6 14,7 9 5 SE 1020,0 -
18.06.2018 23:00:00 23,2 14,4 11 6 SSE 1019,7 20
18.06.2018 22:00:00 23,8 14,1 11 6 SE 1018,7 -
18.06.2018 21:00:00 24,7 14,2 11 6 SSE 1018,3 -
18.06.2018 20:00:00 26,1 14,5 13 7 SE 1017,9 40
18.06.2018 19:00:00 26,9 14,5 11 6 SSE 1017,7 -
18.06.2018 18:00:00 27,5 14,8 13 7 SE 1018,1 -
18.06.2018 17:00:00 28,1 14,2 15 8 SE 1018,3 40
18.06.2018 16:00:00 28,0 13,1 21 11 SE 1018,4 -
18.06.2018 15:00:00 28,5 12,2 18 10 SE 1018,6 40
18.06.2018 14:00:00 28,8 12,2 15 8 ESE 1018,7 40
18.06.2018 13:00:00 28,8 11,8 13 7 ESE 1019,1 -
18.06.2018 12:00:00 29,0 11,7 15 8 E 1019,4 -
18.06.2018 11:00:00 29,0 11,0 11 6 ESE 1019,4 40
18.06.2018 10:00:00 26,0 12,6 9 5 WNW 1019,4 -
18.06.2018 09:00:00 22,7 12,5 13 7 WNW 1019,5 4,2
18.06.2018 08:00:00 20,6 12,1 15 8 WNW 1019,2 30
18.06.2018 07:00:00 21,0 12,2 16 9 WNW 1019,2 -
18.06.2018 06:00:00 20,4 12,2 15 8 WNW 1019,2 -
18.06.2018 05:00:00 21,4 12,8 15 8 W 1019,1 20
18.06.2018 04:00:00 21,6 12,5 13 7 W 1019,2 -
18.06.2018 03:00:00 21,9 13,4 5 3 W 1019,9 -
18.06.2018 02:00:00 21,7 14,2 5 3 E 1020,1 20
18.06.2018 01:00:00 22,0 13,7 8 4 SE 1019,9 -
18.06.2018 00:00:00 21,9 13,1 4 2 S 1019,7 -
17.06.2018 23:00:00 23,0 13,1 4 2 ESE 1019,9 20
17.06.2018 22:00:00 23,5 14,5 8 4 SE 1019,7 -
17.06.2018 21:00:00 24,6 13,2 13 7 SE 1019,3 -
17.06.2018 20:00:00 26,6 11,1 16 9 SSE 1018,9 30
17.06.2018 19:00:00 27,5 9,5 11 6 SE 1018,8 -
17.06.2018 18:00:00 28,6 10,3 16 9 SE 1019,0 -
17.06.2018 17:00:00 28,7 9,0 16 9 SSE 1019,0 30
17.06.2018 16:00:00 28,7 8,5 16 9 SE 1018,9 -
17.06.2018 15:00:00 28,0 15,6 15 8 ESE 1018,9 30
17.06.2018 14:00:00 28,2 12,6 16 9 SE 1018,9 30
17.06.2018 13:00:00 27,9 12,1 15 8 SE 1018,6 -
17.06.2018 12:00:00 28,1 9,1 13 7 SE 1018,5 -
17.06.2018 11:00:00 27,5 7,9 9 5 E 1018,4 30
17.06.2018 10:00:00 24,7 10,3 9 5 W 1018,4 -
17.06.2018 09:00:00 21,1 9,4 15 8 WNW 1018,1 40
17.06.2018 08:00:00 18,8 9,2 15 8 WNW 1017,7 40
17.06.2018 07:00:00 18,4 9,2 16 9 WNW 1017,2 -
17.06.2018 06:00:00 18,1 9,5 15 8 WNW 1017,0 -
17.06.2018 05:00:00 18,8 10,1 11 6 WNW 1016,9 20
17.06.2018 04:00:00 19,8 9,7 8 4 WNW 1016,9 -
17.06.2018 03:00:00 19,1 12,5 2 1 SSW 1016,9 -
17.06.2018 02:00:00 19,5 11,5 4 2 SE 1016,6 15
17.06.2018 01:00:00 19,5 12,5 5 3 S 1016,4 -
17.06.2018 00:00:00 20,4 13,0 4 2 S 1016,0 -
16.06.2018 23:00:00 20,6 13,0 8 4 E 1015,6 20
16.06.2018 22:00:00 21,3 14,0 11 6 E 1014,5 -
16.06.2018 21:00:00 24,2 14,2 11 6 ESE 1014,2 -
16.06.2018 20:00:00 26,2 8,7 13 7 SE 1014,1 20
16.06.2018 19:00:00 26,4 10,5 15 8 SE 1014,1 -
16.06.2018 18:00:00 26,6 9,7 16 9 SE 1014,4 -
16.06.2018 17:00:00 26,1 12,5 16 9 SE 1014,7 20
16.06.2018 16:00:00 26,7 13,8 18 10 SE 1014,7 -
16.06.2018 15:00:00 25,1 15,6 15 8 SE 1014,9 10

tt = temperature
td = dewpoint
ff = wind speed
dd = wind direction
ppp = reduced air pressure
vv = visibility

Next stations